When you browse on this site, cookies collect data to enhance your experience and personalize the content and advertising you see.
Visit our Privacy Policy to learn more. By continuing to use the site, you agree to this use of cookies and data.
  • en France
  • Liste des pays
  • À 7 jours
  • Température de l'eau
  • Carte satellitaire
  • Carte météo
  • Widgets météo
  • user-avatar
    Se connecter

    Météo par heure à Burano

    Ce jour, 23 Mai, Jeudi

    Heure Température Précipitation Vent Pression Humidité
    00:00 +16°C° 0.9 mm 2 m/s 762 mmHg 91%
    01:00 +16°C° 0 mm 2 m/s 762 mmHg 89%
    02:00 +16°C° 0.5 mm 2 m/s 762 mmHg 89%
    03:00 +14°C° 0.5 mm 3 m/s 762 mmHg 90%
    04:00 +14°C° 0.5 mm 3 m/s 762 mmHg 90%
    05:00 +14°C° 0 mm 3 m/s 762 mmHg 86%
    06:00 +16°C° 0 mm 3 m/s 762 mmHg 83%
    07:00 +18°C° 0 mm 1 m/s 762 mmHg 79%
    08:00 +19°C° 0 mm 1 m/s 762 mmHg 76%
    09:00 +20°C° 0 mm 1 m/s 761 mmHg 73%
    10:00 +22°C° 0 mm 1 m/s 761 mmHg 69%
    11:00 +21°C° 0 mm 2 m/s 761 mmHg 68%
    12:00 +23°C° 0 mm 2 m/s 761 mmHg 66%
    13:00 +24°C° 0 mm 3 m/s 761 mmHg 64%
    14:00 +24°C° 0 mm 3 m/s 760 mmHg 63%
    15:00 +24°C° 0 mm 3 m/s 760 mmHg 62%
    16:00 +24°C° 0 mm 3 m/s 760 mmHg 61%
    17:00 +22°C° 0 mm 3 m/s 759 mmHg 65%
    18:00 +23°C° 0 mm 2 m/s 759 mmHg 70%
    19:00 +21°C° 0 mm 2 m/s 759 mmHg 74%
    20:00 +20°C° 0.5 mm 2 m/s 760 mmHg 77%
    21:00 +19°C° 0.5 mm 2 m/s 760 mmHg 79%
    22:00 +17°C° 0.5 mm 3 m/s 761 mmHg 82%
    23:00 +17°C° 0.4 mm 2 m/s 761 mmHg 83%

    Demain, 24 Mai, Vendredi

    Heure Température Précipitation Vent Pression Humidité
    00:00 +18°C° 0.4 mm 1 m/s 761 mmHg 83%
    01:00 +16°C° 0.4 mm 1 m/s 761 mmHg 84%
    02:00 +16°C° 0 mm 1 m/s 761 mmHg 85%
    03:00 +16°C° 0 mm 1 m/s 761 mmHg 86%
    04:00 +15°C° 0 mm 2 m/s 761 mmHg 86%
    05:00 +16°C° 0 mm 2 m/s 760 mmHg 83%
    06:00 +17°C° 0 mm 2 m/s 760 mmHg 81%
    07:00 +18°C° 0 mm 2 m/s 760 mmHg 78%
    08:00 +19°C° 0 mm 2 m/s 760 mmHg 74%
    09:00 +20°C° 0 mm 2 m/s 760 mmHg 70%
    10:00 +21°C° 0 mm 2 m/s 760 mmHg 66%
    11:00 +23°C° 0 mm 2 m/s 760 mmHg 64%
    12:00 +24°C° 0 mm 3 m/s 759 mmHg 61%
    13:00 +24°C° 0 mm 3 m/s 759 mmHg 59%
    14:00 +25°C° 0 mm 3 m/s 759 mmHg 59%
    15:00 +25°C° 0 mm 3 m/s 759 mmHg 59%
    16:00 +25°C° 0 mm 3 m/s 758 mmHg 59%
    17:00 +24°C° 0 mm 3 m/s 758 mmHg 63%
    18:00 +21°C° 0 mm 3 m/s 758 mmHg 68%
    19:00 +20°C° 0 mm 3 m/s 758 mmHg 73%
    20:00 +19°C° 0 mm 2 m/s 759 mmHg 73%
    21:00 +19°C° 0 mm 2 m/s 759 mmHg 72%
    22:00 +19°C° 0 mm 1 m/s 759 mmHg 72%
    23:00 +18°C° 0 mm 1 m/s 759 mmHg 73%

    Après-demain, 25 Mai, Samedi

    Heure Température Précipitation Vent Pression Humidité
    00:00 +18°C° 0 mm 1 m/s 759 mmHg 74%
    01:00 +18°C° 0 mm 1 m/s 759 mmHg 75%
    02:00 +16°C° 0 mm 1 m/s 759 mmHg 77%
    03:00 +16°C° 0 mm 2 m/s 759 mmHg 79%
    04:00 +16°C° 0 mm 2 m/s 759 mmHg 81%
    05:00 +17°C° 0 mm 2 m/s 759 mmHg 80%
    06:00 +17°C° 0 mm 2 m/s 759 mmHg 78%
    07:00 +18°C° 0 mm 2 m/s 759 mmHg 76%
    08:00 +20°C° 0 mm 2 m/s 760 mmHg 72%
    09:00 +21°C° 0 mm 2 m/s 760 mmHg 67%
    10:00 +23°C° 0 mm 2 m/s 760 mmHg 63%
    11:00 +23°C° 0 mm 2 m/s 760 mmHg 60%
    12:00 +24°C° 0 mm 2 m/s 759 mmHg 57%
    13:00 +25°C° 0 mm 3 m/s 759 mmHg 54%
    14:00 +25°C° 0 mm 3 m/s 759 mmHg 55%
    15:00 +24°C° 0 mm 3 m/s 759 mmHg 55%
    16:00 +24°C° 0 mm 3 m/s 759 mmHg 55%
    17:00 +22°C° 0 mm 3 m/s 759 mmHg 61%
    18:00 +21°C° 0 mm 3 m/s 759 mmHg 66%
    19:00 +20°C° 0 mm 2 m/s 759 mmHg 71%
    20:00 +19°C° 0 mm 2 m/s 759 mmHg 73%
    21:00 +18°C° 0 mm 2 m/s 760 mmHg 76%
    22:00 +17°C° 0 mm 2 m/s 760 mmHg 78%
    23:00 +17°C° 0 mm 2 m/s 760 mmHg 79%

    26 Mai, Dimanche

    Heure Température Précipitation Vent Pression Humidité
    00:00 +17°C° 0 mm 2 m/s 760 mmHg 80%
    01:00 +18°C° 0 mm 1 m/s 760 mmHg 81%
    02:00 +16°C° 0 mm 2 m/s 760 mmHg 81%
    03:00 +16°C° 0 mm 2 m/s 759 mmHg 81%
    04:00 +16°C° 0 mm 2 m/s 759 mmHg 82%
    05:00 +17°C° 0 mm 2 m/s 759 mmHg 80%
    06:00 +18°C° 0 mm 2 m/s 759 mmHg 78%
    07:00 +18°C° 0 mm 2 m/s 759 mmHg 75%
    08:00 +20°C° 0 mm 2 m/s 759 mmHg 70%
    09:00 +21°C° 0 mm 2 m/s 759 mmHg 65%
    10:00 +23°C° 0 mm 2 m/s 760 mmHg 60%
    11:00 +24°C° 0 mm 2 m/s 759 mmHg 58%
    12:00 +24°C° 0 mm 2 m/s 759 mmHg 56%
    13:00 +24°C° 0 mm 2 m/s 758 mmHg 54%
    14:00 +24°C° 0 mm 2 m/s 758 mmHg 56%
    15:00 +24°C° 0 mm 2 m/s 758 mmHg 58%
    16:00 +22°C° 0 mm 3 m/s 758 mmHg 60%
    17:00 +21°C° 0 mm 2 m/s 758 mmHg 63%
    18:00 +22°C° 0 mm 1 m/s 758 mmHg 66%
    19:00 +21°C° 0 mm 1 m/s 758 mmHg 70%
    20:00 +21°C° 0 mm 1 m/s 758 mmHg 69%
    21:00 +20°C° 0 mm 1 m/s 758 mmHg 69%
    22:00 +19°C° 0 mm 1 m/s 758 mmHg 69%
    23:00 +19°C° 0 mm 1 m/s 758 mmHg 71%

    27 Mai, Lundi

    Heure Température Précipitation Vent Pression Humidité
    00:00 +19°C° 0 mm 1 m/s 758 mmHg 73%
    01:00 +16°C° 0 mm 0 m/s 757 mmHg 76%
    02:00 +18°C° 0.2 mm 1 m/s 757 mmHg 78%
    03:00 +18°C° 0.2 mm 1 m/s 756 mmHg 80%
    04:00 +18°C° 0.2 mm 1 m/s 756 mmHg 82%
    05:00 +18°C° 1.5 mm 1 m/s 756 mmHg 85%
    06:00 +18°C° 1.5 mm 1 m/s 756 mmHg 87%
    07:00 +18°C° 1.5 mm 1 m/s 756 mmHg 90%
    08:00 +17°C° 1.2 mm 2 m/s 756 mmHg 90%
    09:00 +17°C° 1.2 mm 2 m/s 755 mmHg 90%
    10:00 +17°C° 1.2 mm 3 m/s 755 mmHg 90%
    11:00 +17°C° 0.2 mm 3 m/s 755 mmHg 87%
    12:00 +18°C° 0.2 mm 3 m/s 755 mmHg 84%
    13:00 +19°C° 0.2 mm 4 m/s 755 mmHg 82%
    14:00 +20°C° 0.1 mm 4 m/s 754 mmHg 75%
    15:00 +21°C° 0.1 mm 4 m/s 754 mmHg 69%
    16:00 +24°C° 0.1 mm 3 m/s 753 mmHg 63%
    17:00 +21°C° 0.2 mm 4 m/s 753 mmHg 72%
    18:00 +20°C° 0.2 mm 4 m/s 753 mmHg 80%
    19:00 +18°C° 0.2 mm 4 m/s 753 mmHg 89%
    20:00 +18°C° 0.3 mm 3 m/s 753 mmHg 91%
    21:00 +17°C° 0.3 mm 2 m/s 753 mmHg 93%
    22:00 +16°C° 0.3 mm 1 m/s 753 mmHg 96%
    23:00 +16°C° 0.2 mm 1 m/s 753 mmHg 95%

    28 Mai, Mardi

    Heure Température Précipitation Vent Pression Humidité
    00:00 +16°C° 0.2 mm 2 m/s 753 mmHg 95%
    01:00 +16°C° 0.2 mm 2 m/s 753 mmHg 95%
    02:00 +16°C° 0.1 mm 1 m/s 753 mmHg 95%
    03:00 +16°C° 0.1 mm 1 m/s 752 mmHg 95%
    04:00 +16°C° 0.1 mm 1 m/s 752 mmHg 95%
    05:00 +16°C° 0 mm 1 m/s 753 mmHg 93%
    06:00 +18°C° 0 mm 1 m/s 753 mmHg 91%
    07:00 +16°C° 0 mm 0 m/s 753 mmHg 89%
    08:00 +20°C° 0.1 mm 1 m/s 753 mmHg 85%
    09:00 +21°C° 0.1 mm 1 m/s 753 mmHg 81%
    10:00 +22°C° 0.1 mm 1 m/s 753 mmHg 77%
    11:00 +21°C° 0.6 mm 2 m/s 753 mmHg 75%
    12:00 +23°C° 0.6 mm 2 m/s 753 mmHg 73%
    13:00 +22°C° 0.6 mm 3 m/s 753 mmHg 71%
    14:00 +22°C° 0.7 mm 4 m/s 753 mmHg 72%
    15:00 +22°C° 0.7 mm 4 m/s 754 mmHg 72%
    16:00 +22°C° 0.7 mm 5 m/s 754 mmHg 73%
    17:00 +21°C° 0.9 mm 5 m/s 754 mmHg 77%
    18:00 +21°C° 0.9 mm 5 m/s 754 mmHg 81%
    19:00 +20°C° 0.9 mm 4 m/s 755 mmHg 85%
    20:00 +19°C° 1.1 mm 4 m/s 755 mmHg 87%
    21:00 +18°C° 1.1 mm 4 m/s 756 mmHg 89%
    22:00 +18°C° 1.1 mm 3 m/s 757 mmHg 91%
    23:00 +17°C° 0.4 mm 3 m/s 757 mmHg 92%
    Voir plus